STARLINK-32841, 62865

Orbit data source: Space-Track

STARLINK-32841, 62865 is a payload satellite owned by SpaceX/Seattle (US) in LEO that was launched on Sat, 01 Feb 2025 UTC via an FALCON 9 launch vehicle from the Air Force Western Test Range (AFWTR). Payload-class satellites include a variety of spacecraft equipped with specific instruments for various scientific and technological missions. These include communications satellites like Starlink; space stations such as the ISS; scientific satellites like the Hubble; Earth observation satellites from companies like Planet Labs, Umbra, and HawkEye 360; GPS; miniature CubeSats for education and research; and military/defense satellites.

Loading next visibility...
Identifier
62865, 2025-022M
Orbit
LEO
Country
Flag of USUS
Related business
Manufacturer
SpaceX/Seattle
Mission
Operational Commercial Communications
Bus & Motor
STARLINK V2M, Unknown motor
Mass
730 kg wet, ~700 kg dry
Launch date (UTC)
2025-02-01 (11 months ago)
Launch vehicle
FALCON 9
Launch site
Air Force Western Test Range (AFWTR)
Object type
Payload
Rocket body
Debris
Shape & HBR
Box + 2 Pan, 17.7 m
Radar Cross Section
33.884 m², Large (>1 m²)

Expand to show TLE details & history
Last TLE update: 9 hours ago

TLE from 9 hours ago
0 STARLINK-32841
1 62865U 25022M   25354.68271340  .00027271  00000-0  92829-3 0  9990
2 62865  53.1591 136.6089 0001087  95.8888 264.2237 15.30242243 49799
Epoch: 2025-12-20T16:23Z
TLE epoch observation values (Epoch: 2025-12-20T16:23:06.437Z)
Latitude
-0.00001°
Longitude
161.32607°
Altitude
476.064 km
Speed
7.629 km/s
True Right ascension
09h 06m 26s
True Declination
0° 00' 00"
Sunlit
Object was in full shadow at epoch
Visualization orbit readout
Latitude
Unknown
Longitude
Unknown
Altitude
Unknown
Speed
Unknown
Apparent Right ascension
Unknown
Apparent Declination
Unknown
Sunlit
N/A
Visualization observer readout
Local Sidereal Time
00:09:18
Azimuth
Unknown
Elevation
Unknown
Doppler factor
Unknown
Orbital elements
Apogee altitude
476.09 km
Perigee altitude
474.601 km
Semi-major axis
6,853.483 km
Eccentricity
0.00011
Inclination
53.1591°
RAAN
136.6089°
Arg. of periapsis
95.8888°
True anomaly
264.21131°
Mean anomaly
264.2237°
Eccentric anomaly
264.2175°
Mean motion
3.82539 °/min
Orbital period
94.11 mins
BSTAR
0.00092829
Loading maneuver chart data...
Computing Atmospheric mass density...
Loading historical data...
Loading historical data...
Loading historical data...
Loading historical data...
Loading historical data...
Loading historical data...
Loading historical data...

Documentation

Showing up to 5 results
|